Flag for U.S.A. Weather past 2 weeks in Sunrise, Florida, U.S.A.

Now
74 °F

Clear.


Feels Like: 70 °F
Forecast: 73 / 86 °F
Wind: No wind

Location: Fort Lauderdale Executive Airport

Current Time: Sep 21, 2014 at 2:22:27 AM

Latest Report: Sep 21, 2014 at 1:53 AM


Visibility: 10 mi

Pressure: 29.96 "Hg

Humidity: 100%

Dew point: 74 °F

Location of SunriseLocation

Historic Weather in Sunrise — Graph

°F

Sunrise temperature yesterday

Maximum temperature yesterday: 89 °F (at 1:53 PM)
Minimum temperature yesterday: 75 °F (at 4:53 PM)
Average temperature yesterday: 77 °F

Past Weeks' High & Low Weather Summary

 TemperatureHumidityPressure
High90 °F (Sep 8, 1:53 PM)100% (Sep 13, 12:53 AM)30.16 "Hg (Sep 13, 12:53 AM)
Low74 °F (Sep 12, 6:53 AM)52% (Sep 17, 2:53 PM)29.87 "Hg (Sep 18, 4:53 PM)
Average81 °F84%30.00 "Hg
* Reported Sep 6 12:53 AM — Sep 21 12:53 AM, Sunrise, Weather by CustomWeather, © 2014

Note: Actual official high and low records may vary slightly from our data, if they occured in-between our weather recording intervals... More about our weather records

Advertising

Sunrise weather history for previous 24 hours

 ConditionsComfort  
Time TempWeatherWind HumidityBarometerVisibility
12:53 AM
Sep 21
75 °FClear.5 mph100%29.98 "Hg10 mi
11:53 PM
Sep 20
75 °FClear.3 mph100%29.98 "Hg10 mi
10:53 PM75 °FClear.No wind100%29.97 "Hg10 mi
9:53 PM75 °FClear.No wind100%29.95 "Hg10 mi
8:53 PM75 °FPassing clouds.No wind100%29.94 "Hg10 mi
7:53 PM76 °FThunderstorms. Partly sunny.3 mph100%29.94 "Hg10 mi
6:53 PM77 °FThunderstorms. Overcast.No wind96%29.93 "Hg10 mi
5:53 PM75 °FThunderstorms. Passing clouds.7 mph100%29.91 "Hg10 mi
4:53 PM75 °FThunderstorms. Mostly cloudy.6 mph96%29.91 "Hg10 mi
3:53 PM76 °FThunderstorms. Cloudy.10 mph94%29.91 "Hg7 mi
2:53 PM81 °FThunderstorms. Cloudy.9 mph85%29.89 "Hg5 mi
1:53 PM89 °FScattered clouds.12 mph57%29.89 "Hg10 mi
8:53 AM78 °FScattered clouds.5 mph100%29.93 "Hg10 mi
7:53 AM76 °FPassing clouds.3 mph100%29.92 "Hg10 mi
6:53 AM76 °FClear.No wind100%29.92 "Hg10 mi
5:53 AM76 °FClear.No wind100%29.91 "Hg10 mi
4:53 AM76 °FClear.No wind100%29.90 "Hg10 mi
3:53 AM76 °FClear.No wind100%29.90 "Hg10 mi
2:53 AM76 °FLight rain. Fog.No wind100%29.92 "Hg5 mi
Weather by CustomWeather, © 2014

See weather overviewHow to use our weather pages